Location: Saint Louis
(38.6272°N, 90.1978°W)
Time: 22:21:59
(UTC-05:00)

ISS - Pass Details

Date: 09 February 2013
Orbit: 402 x 404 km, 51.6° (Epoch: 24 May)

Event Time Altitude Azimuth Distance (km) Brightness Sun altitude
Rises 19:31:02 0° 287° (WNW) 2,338 1.8 -23.6°
Reaches altitude 10° 19:34:09 10° 319° (NW) 1,490 0.0 -24.3°
Enters shadow 19:35:21 12° 340° (NNW) 1,368 -0.4 -24.5°
